Weather History for Black River Falls, WI

Change the Weather History Date:

Friday, October 25, 2013

  Actual Average (KLSE) Record (KLSE)
Temperature  
Mean Temperature 40 °F 47 °F  
Max Temperature 53 °F 56 °F 81 °F (1989)
Min Temperature 28 °F 38 °F 6 °F (1887)
Degree Days  
Heating Degree Days 25 18  
Month to date heating degree days 350  
Since 1 July heating degree days 510  
Cooling Degree Days 0 0  
Month to date cooling degree days 7  
Year to date cooling degree days 781  
Moisture  
Dew Point 28 °F    
Average Humidity 62    
Maximum Humidity 100    
Minimum Humidity 37    
Precipitation  
Precipitation 0.00 in 0.07 in 1.18 in (1875)
Month to date precipitation 1.80  
Year to date precipitation 29.32  
Snow  
Snow 0.00 in 0.00 in T in (2001)
Month to date snowfall 0.1  
Since 1 July snowfall 0.1  
Snow Depth -    
Sea Level Pressure  
Sea Level Pressure 30.12 in    
Wind  
Wind Speed 5 mph (SW)    
Max Wind Speed 17 mph    
Max Gust Speed 26 mph    
Visibility 10 miles    
Events      
T = Trace of Precipitation, MM = Missing Value Source: NWS Daily Summary

Daily Weather History Graph

Daily Weather History Graph

Search for Another Location

Airport:

Trip Planner

Search our weather history database for the weather conditions in past years. The results will help you decide how hot, cold, wet, or windy it might be!

Date:

Astronomy

Oct. 25, 2013 Rise Set
Actual Time 7:31 AM CDT 6:02 PM CDT
Civil Twilight 7:01 AM CDT 6:32 PM CDT
Nautical Twilight 6:27 AM CDT 7:06 PM CDT
Astronomical Twilight 5:54 AM CDT 7:39 PM CDT
Moon 11:19 PM CDT 1:15 PM CDT
Length of Visible Light 11h 30m
Length of Day
10h 31m
Waning Gibbous, 62% of the Moon is Illuminated
Oct 25
Waning Gibbous
Oct 26
Last Quarter
Nov 3
New
Nov 9
First Quarter
Nov 17
Full

Hourly Weather History & Observations

Time (CDT) Temp. Windchill Dew Point Humidity Pressure Visibility Wind Dir Wind Speed Gust Speed Precip Events Conditions
12:15 AM 28.2 °F - 28.2 °F 100% 30.29 in 10.0 mi Calm Calm - N/A   Overcast
12:35 AM 29.3 °F - 29.3 °F 100% 30.29 in 10.0 mi Calm Calm - N/A   Overcast
12:55 AM 30.0 °F - 30.0 °F 100% 30.30 in 10.0 mi Calm Calm - N/A   Overcast
1:15 AM 30.4 °F 26.9 °F 30.2 °F 99% 30.29 in 10.0 mi South 3.5 mph - N/A   Overcast
1:35 AM 30.2 °F - 30.0 °F 99% 30.29 in 10.0 mi Calm Calm - N/A   Overcast
1:55 AM 30.6 °F - 30.0 °F 98% 30.29 in 10.0 mi Calm Calm - N/A   Overcast
2:15 AM 30.2 °F - 29.8 °F 99% 30.30 in 10.0 mi Calm Calm - N/A   Overcast
2:35 AM 30.2 °F 26.7 °F 29.8 °F 99% 30.30 in 10.0 mi SSW 3.5 mph - N/A   Overcast
2:55 AM 32.0 °F - 30.2 °F 93% 30.30 in 10.0 mi Calm Calm - N/A   Overcast
3:15 AM 32.9 °F 29.8 °F 30.0 °F 89% 30.30 in 10.0 mi SSW 3.5 mph - N/A   Overcast
3:35 AM 33.1 °F - 27.9 °F 81% 30.30 in 10.0 mi Calm Calm - N/A   Overcast
3:55 AM 32.5 °F - 28.0 °F 83% 30.30 in 10.0 mi Calm Calm - N/A   Overcast
4:15 AM 32.5 °F - 28.0 °F 83% 30.30 in 10.0 mi Calm Calm - N/A   Overcast
4:35 AM 32.4 °F 29.1 °F 28.2 °F 85% 30.30 in 10.0 mi SSW 3.5 mph - N/A   Overcast
4:55 AM 32.4 °F 29.1 °F 28.2 °F 85% 30.29 in 10.0 mi South 3.5 mph - N/A   Overcast
5:15 AM 32.9 °F 29.8 °F 28.2 °F 83% 30.30 in 10.0 mi SSW 3.5 mph - N/A   Overcast
5:35 AM 33.3 °F 30.2 °F 28.2 °F 82% 30.30 in 10.0 mi SSW 3.5 mph - N/A   Overcast
5:55 AM 33.3 °F - 28.4 °F 82% 30.30 in 10.0 mi Calm Calm - N/A   Overcast
6:15 AM 33.8 °F 30.8 °F 28.4 °F 81% 30.30 in 10.0 mi SSW 3.5 mph - N/A   Overcast
6:35 AM 33.3 °F 30.2 °F 28.4 °F 82% 30.31 in 10.0 mi SSW 3.5 mph - N/A   Overcast
6:55 AM 33.4 °F 30.4 °F 28.4 °F 82% 30.30 in 10.0 mi South 3.5 mph - N/A   Overcast
7:15 AM 33.6 °F 30.6 °F 28.2 °F 81% 30.30 in 10.0 mi SW 3.5 mph - N/A   Overcast
7:35 AM 33.4 °F - 28.0 °F 81% 30.29 in 10.0 mi Calm Calm - N/A   Overcast
7:55 AM 33.1 °F - 28.2 °F 82% 30.29 in 10.0 mi Calm Calm - N/A   Overcast
8:15 AM 33.1 °F - 28.2 °F 82% 30.29 in 10.0 mi Calm Calm - N/A   Overcast
8:35 AM 33.3 °F 30.2 °F 28.0 °F 81% 30.30 in 10.0 mi SSW 3.5 mph - N/A   Overcast
8:55 AM 34.7 °F 30.6 °F 28.4 °F 78% 30.30 in 10.0 mi SSW 4.6 mph - N/A   Mostly Cloudy
9:15 AM 35.2 °F 31.2 °F 28.4 °F 76% 30.30 in 10.0 mi SSW 4.6 mph - N/A   Overcast
9:35 AM 36.7 °F 32.9 °F 28.8 °F 73% 30.29 in 10.0 mi SSW 4.6 mph - N/A   Scattered Clouds
9:55 AM 38.5 °F 34.1 °F 29.1 °F 69% 30.29 in 10.0 mi SW 5.8 mph - N/A   Clear
10:15 AM 39.9 °F 35.8 °F 29.3 °F 66% 30.28 in 10.0 mi SSW 5.8 mph - N/A   Clear
10:35 AM 41.0 °F 36.4 °F 28.8 °F 62% 30.27 in 10.0 mi SW 6.9 mph - N/A   Clear
10:55 AM 42.1 °F 37.7 °F 28.4 °F 58% 30.26 in 10.0 mi WSW 6.9 mph - N/A   Clear
11:15 AM 42.6 °F 38.4 °F 25.5 °F 51% 30.25 in 10.0 mi WSW 6.9 mph - N/A   Clear
11:35 AM 43.9 °F 37.9 °F 24.8 °F 47% 30.24 in 10.0 mi SW 11.5 mph - N/A   Clear
11:55 AM 43.7 °F 38.6 °F 25.2 °F 48% 30.22 in 10.0 mi SW 9.2 mph - N/A   Clear
12:15 PM 46.2 °F 41.7 °F 24.6 °F 43% 30.21 in 10.0 mi WSW 9.2 mph - N/A   Clear
12:35 PM 46.6 °F - 24.4 °F 42% 30.20 in 10.0 mi WSW 10.4 mph 20.7 mph N/A   Clear
12:55 PM 47.7 °F - 25.0 °F 41% 30.18 in 10.0 mi SSW 12.7 mph 19.6 mph N/A   Clear
1:15 PM 49.1 °F - 25.9 °F 40% 30.16 in 10.0 mi SSW 8.1 mph 23.0 mph N/A   Clear
1:35 PM 48.6 °F - 25.9 °F 41% 30.15 in 10.0 mi SW 13.8 mph 21.9 mph N/A   Clear
1:55 PM 47.3 °F - 26.6 °F 45% 30.12 in 10.0 mi SW 8.1 mph 19.6 mph N/A   Scattered Clouds
2:15 PM 49.5 °F - 27.3 °F 42% 30.11 in 10.0 mi SW 10.4 mph 21.9 mph N/A   Mostly Cloudy
2:35 PM 51.8 °F - 27.1 °F 39% 30.08 in 10.0 mi SW 12.7 mph 20.7 mph N/A   Mostly Cloudy
2:55 PM 51.1 °F - 26.6 °F 39% 30.07 in 10.0 mi SW 13.8 mph 24.2 mph N/A   Mostly Cloudy
3:15 PM 50.2 °F - 26.6 °F 40% 30.04 in 10.0 mi SW 8.1 mph 18.4 mph N/A   Overcast
3:35 PM 50.5 °F - 25.7 °F 38% 30.03 in 10.0 mi SW 11.5 mph 21.9 mph N/A   Overcast
3:55 PM 51.1 °F - 25.5 °F 37% 30.02 in 10.0 mi SW 11.5 mph 26.5 mph N/A   Overcast
4:15 PM 51.3 °F - 25.7 °F 37% 30.00 in 10.0 mi SSW 11.5 mph 20.7 mph N/A   Mostly Cloudy
4:35 PM 51.4 °F - 25.9 °F 37% 29.99 in 10.0 mi SSW 15.0 mph 23.0 mph N/A   Scattered Clouds
4:55 PM 50.9 °F - 26.2 °F 38% 29.96 in 10.0 mi SSW 9.2 mph 23.0 mph N/A   Scattered Clouds
5:15 PM 50.5 °F - 26.2 °F 39% 29.95 in 10.0 mi SSW 11.5 mph 21.9 mph N/A   Scattered Clouds
5:35 PM 50.5 °F - 26.4 °F 39% 29.93 in 10.0 mi SW 12.7 mph 20.7 mph N/A   Clear
5:55 PM 50.2 °F - 26.6 °F 40% 29.92 in 10.0 mi SSW 9.2 mph 20.7 mph N/A   Clear
6:15 PM 49.6 °F - 27.1 °F 42% 29.90 in 10.0 mi SSW 10.4 mph 17.3 mph N/A   Clear
6:35 PM 50.0 °F - 27.5 °F 42% 29.88 in 10.0 mi SW 10.4 mph 19.6 mph N/A   Clear
6:55 PM 50.0 °F - 28.2 °F 43% 29.87 in 10.0 mi SSW 10.4 mph 18.4 mph N/A   Clear
7:15 PM 50.0 °F - 29.1 °F 45% 29.86 in 10.0 mi SSW 11.5 mph 19.6 mph N/A   Clear
7:35 PM 50.5 °F - 29.3 °F 44% 29.86 in 10.0 mi SW 11.5 mph 21.9 mph N/A   Clear
7:55 PM 50.9 °F - 30.0 °F 45% 29.86 in 10.0 mi SW 15.0 mph 23.0 mph N/A   Clear
8:15 PM 50.9 °F - 30.2 °F 45% 29.85 in 10.0 mi SW 13.8 mph 24.2 mph N/A   Clear
8:35 PM 50.9 °F - 30.7 °F 46% 29.86 in 10.0 mi SW 13.8 mph 20.7 mph N/A   Clear
8:55 PM 50.9 °F - 31.1 °F 47% 29.84 in 10.0 mi SW 13.8 mph 21.9 mph N/A   Clear
9:15 PM 50.9 °F - 31.1 °F 47% 29.84 in 10.0 mi SW 10.4 mph 21.9 mph N/A   Scattered Clouds
9:35 PM 50.9 °F - 31.5 °F 47% 29.83 in 10.0 mi WSW 10.4 mph 21.9 mph N/A   Scattered Clouds
9:55 PM 51.3 °F - 31.6 °F 47% 29.83 in 10.0 mi SW 10.4 mph 21.9 mph N/A   Mostly Cloudy
10:15 PM 51.8 °F - 31.8 °F 47% 29.82 in 10.0 mi SW 9.2 mph 23.0 mph N/A   Overcast
10:35 PM 52.0 °F - 31.8 °F 46% 29.81 in 10.0 mi SW 11.5 mph 20.7 mph N/A   Overcast
10:55 PM 52.3 °F - 31.8 °F 46% 29.80 in 10.0 mi WSW 16.1 mph 21.9 mph N/A   Overcast
11:15 PM 52.7 °F - 31.8 °F 45% 29.79 in 10.0 mi WSW 17.3 mph 24.2 mph N/A   Overcast
11:35 PM 52.7 °F - 32.0 °F 45% 29.78 in 10.0 mi SW 12.7 mph 23.0 mph N/A   Overcast
11:55 PM 53.1 °F - 32.0 °F 45% 29.78 in 10.0 mi WSW 11.5 mph 24.2 mph N/A   Overcast